Location: Beang
(6.6177°N, 10.9863°W)
Time: 01:12:23
(UTC+00:00)

Daily predictions for brighter satellites

Satellite Brightness Start Highest point End
(mag) Time Altitude Azimuth Time Altitude Azimuth Time Altitude Azimuth
Cosmos 2344 4.4 03:10:17 45° NE 03:10:17 45° NE 03:15:12 10° NNE
Cosmos 2237 Rocket 4.1 03:34:34 25° E 03:34:34 25° E 03:37:53 10° NE
Atlas Centaur 2 3.8 03:51:08 29° ESE 03:51:08 29° ESE 03:54:07 10° E
Cosmos 2333 Rocket 4.4 04:19:37 13° NNW 04:19:37 13° NNW 04:20:21 10° NNW
Cosmos 1821 Rocket 3.9 04:17:51 86° SSW 04:18:01 89° W 04:24:22 10° N
NOSS 0 Rocket 4.2 04:20:35 52° NNW 04:20:35 52° NNW 04:25:35 10° N
Cosmos 967 Rocket 4.4 04:19:38 80° S 04:19:59 86° ESE 04:26:27 10° NNE
Cosmos 2219 Rocket 4.4 04:23:18 13° NNW 04:23:18 13° NNW 04:24:06 10° NNW
USA 32 4.1 04:22:22 73° ENE 04:22:22 73° ENE 04:27:18 10° N
CZ-2C R/B 2.7 04:18:19 10° NNE 04:23:24 63° ESE 04:23:37 62° ESE
ISO 3.6 04:29:51 29° SE 04:29:51 29° SE 04:31:44 10° ESE
BLOCK DM-SL R/B 3.9 04:33:47 37° SSE 04:33:47 37° SSE 04:43:00 10° E
CZ-4B R/B 4.2 04:38:35 10° ESE 04:40:36 16° ENE 04:42:36 10° NE
USA 234 3.3 04:34:54 10° NNE 04:41:18 61° NW 04:42:56 47° WSW
Cosmos 1805 Rocket 3.9 04:40:39 51° SE 04:41:31 63° E 04:45:52 10° NNE
ARIANE 5 R/B 3.0 04:42:14 47° WSW 04:44:18 71° S 05:37:01 10° E
Cosmos 1727 Rocket 3.8 04:39:51 10° N 04:45:59 69° W 04:49:00 32° SSW
GPS 2-15 Rocket1 3.4 04:47:58 50° S 04:48:14 50° SSE 04:52:52 10° E
H-2A R/B 3.5 04:51:26 25° NW 04:51:26 25° NW 04:53:28 10° NNW
OAO 1 Rocket 4.3 04:48:34 60° WSW 04:49:32 82° NW 04:54:52 10° NE
Cosmos 1980 4.4 04:51:26 35° WNW 04:51:26 35° WNW 04:56:19 10° N
Delta 2 Rocket 4.4 04:53:25 40° SSW 04:55:04 56° SE 05:00:36 10° ENE
ADEOS 3.6 04:53:14 10° N 04:58:19 56° WNW 04:59:45 42° SW
STARLINK-1181 4.5 04:57:47 33° SSE 04:58:54 41° ESE 05:02:36 10° NE
Cosmos 1844 3.8 04:57:00 10° NNW 05:02:45 78° ENE 05:08:26 10° SSE
STARLINK-1183 4.2 05:01:40 34° S 05:02:56 47° ESE 05:06:43 10° NE
Cosmos 1484 Rocket 3.4 04:59:53 10° NNE 05:03:48 57° E 05:06:41 17° S
H-2A R/B 4.5 05:00:04 10° NE 05:03:58 29° E 05:07:52 10° SSE
Cosmos 1151 Rocket 4.5 05:01:14 10° NNW 05:03:19 22° NW 05:03:19 22° NW
GEOS 3 Rocket 3.8 05:00:56 10° S 05:05:42 44° WSW 05:10:35 10° NW
Sich 1 2.9 05:04:28 29° S 05:06:39 83° W 05:10:57 10° N
USA 229 DEB 4.4 05:00:23 10° NW 05:07:11 35° WSW 05:14:01 10° S
USA 229 4.4 05:00:28 10° NW 05:07:18 36° WSW 05:14:10 10° S
STARLINK-1194 3.7 05:10:37 33° SSW 05:12:13 65° SE 05:16:07 10° NE
Iridium 4 Rocket 3.8 05:12:52 33° WSW 05:13:31 35° W 05:18:00 10° NNW
STARLINK-1193 3.5 05:14:28 31° SSW 05:16:14 75° ESE 05:20:10 10° NE
Cosmos 1238 Rocket 4.4 05:11:46 10° SSE 05:16:19 50° E 05:21:46 10° NNE
Cosmos 2237 Rocket 3.5 05:16:25 20° W 05:16:55 20° WNW 05:20:59 10° NNW
NOSS 3-1 (A) 4.5 05:08:44 10° NW 05:17:05 49° WSW 05:25:34 10° S
Cosmos 1515 Rocket 3.9 05:13:12 10° NNW 05:17:16 41° W 05:19:13 26° SSW
H-2A R/B (2) 2.9 05:11:27 22° WSW 05:17:16 48° NW 05:20:45 10° NE
BREEZE-M DEB (TANK) 4.2 05:18:05 25° W 05:19:44 36° NW 05:28:17 10° NNE
STARLINK-1184 3.4 05:18:18 29° SSW 05:20:12 85° SE 05:24:09 10° NE
STARLINK-1127 3.4 05:22:08 27° SW 05:24:11 85° WNW 05:28:08 10° NNE
ARIANE 5 DEB (SYLDA) 4.4 05:11:10 18° W 05:25:27 66° S 05:30:53 10° ESE
Ariane V96 H10-3 2.7 05:24:22 28° WSW 05:25:40 45° SSW 05:27:54 10° ESE
ATLAS 2A CENTAUR R/B 2.9 05:24:09 15° S 05:26:14 27° SE 05:32:45 10° ENE
Meteor PRIRODA 3.9 05:23:16 10° NNE 05:26:52 66° ESE 05:30:27 10° S
STARLINK-1142 3.4 05:26:00 25° SW 05:28:13 75° NW 05:32:10 10° NNE
CZ-4B R/B 2.5 05:25:13 10° N 05:28:46 77° WNW 05:32:16 11° SSW
FENGYUN 3A 3.6 05:25:39 10° N 05:31:03 78° WNW 05:36:29 10° SSW
STARLINK-1137 3.5 05:29:56 23° SW 05:32:17 65° NW 05:36:13 10° NNE
Cosmos 1441 Rocket 4.1 05:29:09 10° S 05:32:46 48° E 05:36:24 10° NNE
STARLINK-60 2.8 05:30:08 10° NW 05:33:18 71° WSW 05:36:30 10° SSE
STARLINK-1195 3.7 05:33:56 20° SW 05:36:27 57° NW 05:40:21 10° NNE
Atlas Centaur 2 2.5 05:33:45 17° W 05:38:04 47° NNW 05:42:40 10° NE
Ariane H10+ 3.8 05:33:25 17° W 05:38:12 72° S 05:47:36 10° E
Delta 168 2.4 05:36:45 21° WSW 05:38:50 86° SSE 05:43:02 10° ENE
SL-16 R/B 2.6 05:34:46 14° SW 05:39:21 44° WNW 05:44:42 10° N
Cosmos 468 4.5 05:34:45 10° SSW 05:40:04 80° WNW 05:45:23 10° N
STARLINK-1152 3.8 05:38:01 18° SW 05:40:42 49° NW 05:44:32 10° NNE
Fermi 4.2 05:37:22 10° NW 05:41:26 62° NNE 05:45:28 10° ESE
SJ-12 3.9 05:38:10 10° N 05:42:17 75° WNW 05:46:25 10° SSW
Cosmos 1844 Rocket 3.5 05:37:43 10° NW 05:42:21 28° WSW 05:47:01 10° SSW
Meteor 1-10 Rocket 4.4 05:39:05 10° N 05:44:45 76° E 05:50:19 10° S
Cosmos 1689 Rocket 1.9 05:42:46 10° S 05:45:40 76° W 05:48:35 10° NNW
PEGASUS R/B 4.4 05:43:42 10° N 05:45:52 30° WNW 05:48:28 12° SW
Cosmos 1633 Rocket 3.5 05:46:35 10° SSW 05:50:40 41° W 05:54:44 10° NNW
Meteor 2-6 Rocket 4.2 05:48:44 10° NNW 05:54:18 66° W 05:59:46 10° S
ARIANE 44L R/B 0.8 05:53:30 11° W 05:55:24 80° N 05:57:36 10° E
Cosmos 1933 Rocket 4.1 05:52:24 10° S 05:56:49 65° E 06:01:12 10° NNE
PSLV R/B 3.9 05:56:35 10° SSE 06:00:37 87° E 06:04:39 10° N
MOS 1-B 4.5 05:56:50 10° NNE 06:02:39 88° ESE 06:08:28 10° SSW
H-2A R/B 4.4 05:59:24 10° NE 06:02:45 34° E 06:06:08 10° SSE
Cosmos 2278 Rocket 2.9 05:59:31 10° N 06:05:05 61° ENE 06:10:39 10° SSE
Skynet4D Del rocket 3.6 06:00:21 10° WNW 06:06:11 69° SSW 06:11:33 10° SE
STARLINK-29 2.8 06:03:06 10° NW 06:06:14 78° WSW 06:09:22 10° SSE
ALOS 3.5 06:04:14 10° NNW 06:07:56 24° WNW 06:11:38 10° SW
Cosmos 1603 4.1 06:05:06 10° S 06:10:38 70° ESE 06:16:12 10° NNE
